TimeCST,TemperatureF,Dew PointF,Humidity,Sea Level PressureIn,VisibilityMPH,Wind Direction,Wind SpeedMPH,Gust SpeedMPH,PrecipitationIn,Events,Conditions,WindDirDegrees,DateUTC
12:53 AM,48.9,36.0,61,30.19,10.0,South,5.8,-,0.00,,Overcast,180,2013-11-21 06:53:00
1:53 AM,48.0,37.0,66,30.20,8.0,South,11.5,-,0.00,Rain,Light Rain,170,2013-11-21 07:53:00
2:53 AM,46.9,37.9,71,30.15,10.0,SSE,13.8,-,0.01,,Overcast,150,2013-11-21 08:53:00
3:53 AM,46.9,37.9,71,30.18,10.0,SSE,5.8,-,0.00,,Mostly Cloudy,150,2013-11-21 09:53:00
4:53 AM,48.0,39.0,71,30.19,10.0,South,9.2,-,N/A,,Overcast,180,2013-11-21 10:53:00
5:53 AM,46.9,39.0,74,30.19,10.0,South,6.9,-,0.00,,Overcast,170,2013-11-21 11:53:00
6:53 AM,46.9,41.0,80,30.23,7.0,South,6.9,-,0.01,Rain,Light Rain,190,2013-11-21 12:53:00
7:53 AM,46.9,43.0,86,30.25,4.0,South,9.2,-,0.04,Rain,Light Rain,190,2013-11-21 13:53:00
8:53 AM,48.9,44.1,83,30.24,7.0,SSE,8.1,-,0.01,,Mostly Cloudy,150,2013-11-21 14:53:00
9:53 AM,51.1,45.0,80,30.25,8.0,South,10.4,-,N/A,,Overcast,180,2013-11-21 15:53:00
10:53 AM,52.0,46.0,80,30.22,7.0,South,10.4,-,N/A,,Overcast,170,2013-11-21 16:53:00
11:53 AM,53.1,46.0,77,30.20,8.0,South,9.2,-,N/A,,Overcast,190,2013-11-21 17:53:00
12:29 PM,52.0,48.0,86,30.19,2.5,SW,4.6,-,0.02,Rain,Light Rain,220,2013-11-21 18:29:00
12:38 PM,52.0,48.0,86,30.19,3.0,SW,4.6,-,0.03,Rain,Rain,220,2013-11-21 18:38:00
12:53 PM,52.0,48.0,86,30.19,4.0,SW,4.6,-,0.03,,Overcast,220,2013-11-21 18:53:00
1:02 PM,52.0,48.9,89,30.18,2.5,Calm,Calm,-,0.01,Rain,Light Rain,0,2013-11-21 19:02:00
1:09 PM,52.0,48.0,86,30.19,6.0,Calm,Calm,-,0.01,Rain,Light Rain,0,2013-11-21 19:09:00
1:25 PM,52.0,48.9,89,30.19,5.0,Calm,Calm,-,0.01,,Overcast,0,2013-11-21 19:25:00
1:39 PM,52.0,48.9,89,30.18,2.5,Calm,Calm,-,0.02,Rain,Light Rain,0,2013-11-21 19:39:00
1:48 PM,51.8,48.2,88,30.19,1.0,Calm,Calm,-,0.04,Rain,Rain,0,2013-11-21 19:48:00
1:53 PM,52.0,48.9,89,30.19,1.5,West,4.6,-,0.05,Rain,Rain,270,2013-11-21 19:53:00
2:06 PM,51.1,48.9,92,30.19,2.0,Calm,Calm,-,0.02,Rain,Light Rain,0,2013-11-21 20:06:00
2:13 PM,51.1,48.9,92,30.19,1.8,West,3.5,-,0.03,Rain,Light Rain,260,2013-11-21 20:13:00
2:35 PM,51.1,48.9,92,30.20,2.0,WNW,5.8,-,0.07,Rain,Rain,300,2013-11-21 20:35:00
2:53 PM,51.1,48.9,92,30.21,3.0,WNW,6.9,-,0.09,Rain,Light Rain,300,2013-11-21 20:53:00
3:30 PM,50.0,48.0,93,30.20,2.0,Calm,Calm,-,0.01,Rain,Light Rain,0,2013-11-21 21:30:00
3:44 PM,50.0,48.9,96,30.20,2.0,Calm,Calm,-,0.03,Rain,Light Rain,0,2013-11-21 21:44:00
3:53 PM,50.0,48.9,96,30.20,2.5,East,4.6,-,0.03,Rain,Light Rain,90,2013-11-21 21:53:00
4:36 PM,50.0,48.9,96,30.19,3.0,ESE,4.6,-,0.01,Rain,Light Rain,110,2013-11-21 22:36:00
4:53 PM,50.0,48.9,96,30.19,3.0,ESE,6.9,-,0.01,Rain,Light Rain,110,2013-11-21 22:53:00
5:08 PM,50.0,48.9,96,30.18,2.5,ESE,5.8,-,0.00,,Overcast,110,2013-11-21 23:08:00
5:25 PM,50.0,48.9,96,30.18,3.0,ESE,4.6,-,0.00,Rain,Light Rain,120,2013-11-21 23:25:00
5:53 PM,51.1,50.0,96,30.19,4.0,SSE,6.9,-,0.01,,Overcast,150,2013-11-21 23:53:00
6:13 PM,51.1,50.0,96,30.19,3.0,SSE,5.8,-,N/A,,Overcast,150,2013-11-22 00:13:00
6:24 PM,51.1,50.0,96,30.19,2.5,SSE,5.8,-,N/A,,Overcast,160,2013-11-22 00:24:00
6:39 PM,51.1,50.0,96,30.19,2.5,SSE,4.6,-,N/A,,Overcast,160,2013-11-22 00:39:00
6:50 PM,51.8,50.0,94,30.19,2.5,SSE,4.6,-,N/A,,Overcast,150,2013-11-22 00:50:00
6:53 PM,51.1,50.0,96,30.19,2.5,SSE,4.6,-,N/A,,Overcast,150,2013-11-22 00:53:00
7:53 PM,51.1,50.0,96,30.18,2.0,SE,4.6,-,0.00,,Overcast,140,2013-11-22 01:53:00
8:25 PM,52.0,51.1,97,30.18,3.0,SSE,5.8,-,N/A,,Overcast,150,2013-11-22 02:25:00
8:36 PM,52.0,51.1,97,30.18,3.0,SSE,5.8,-,N/A,,Overcast,150,2013-11-22 02:36:00
8:53 PM,52.0,51.1,97,30.19,2.5,South,4.6,-,N/A,,Overcast,180,2013-11-22 02:53:00
9:46 PM,51.1,51.1,100,30.19,1.8,South,5.8,-,N/A,,Overcast,180,2013-11-22 03:46:00
9:53 PM,52.0,51.1,97,30.19,1.8,South,6.9,-,N/A,,Overcast,180,2013-11-22 03:53:00
10:17 PM,52.0,51.1,97,30.19,1.5,SSW,4.6,-,N/A,,Overcast,200,2013-11-22 04:17:00
10:25 PM,52.0,51.1,97,30.20,1.5,SW,5.8,-,N/A,,Overcast,220,2013-11-22 04:25:00
10:53 PM,52.0,52.0,100,30.21,1.2,SW,5.8,-,0.00,Rain,Light Rain,230,2013-11-22 04:53:00
11:10 PM,52.0,52.0,100,30.20,0.8,SW,3.5,-,0.02,Rain,Light Rain,220,2013-11-22 05:10:00
11:43 PM,53.1,53.1,100,30.20,0.8,SW,3.5,-,0.03,Rain,Light Rain,220,2013-11-22 05:43:00
11:48 PM,53.6,53.6,100,30.20,1.0,SW,3.5,-,0.03,Rain,Light Rain,220,2013-11-22 05:48:00
11:53 PM,53.1,53.1,100,30.20,1.2,WSW,3.5,-,0.03,,Overcast,250,2013-11-22 05:53:00